Location: Unspecified
(47.6579°N, 23.5637°E)
Time: 02:59:02
(UTC+02:00)

Envisat - Pass Details

Date: 03 December 2021
Orbit: 764 x 766 km, 98.2° (Epoch: 17 January)

Event Time Altitude Azimuth Distance (km) Brightness Sun altitude
Rises 17:46:26 0° 208° (SSW) 3,221 7.0 -11.5°
Reaches altitude 10° 17:49:24 10° 226° (SW) 2,300 6.6 -12.0°
Maximum altitude 17:52:55 19° 270° (W) 1,780 5.9 -12.5°
Drops below altitude 10° 17:56:27 10° 314° (NW) 2,313 5.8 -13.1°
Sets 17:59:28 0° 333° (NNW) 3,245 6.4 -13.6°
